Flag for U.S.A. Weather past 2 weeks in Washington DC, District of Columbia, U.S.A.

Now
80 °F

Partly cloudy.


Feels Like: 85 °F
Forecast: 71 / 86 °F
Wind: 5 mph from East

Location: Reagan National Airport

Current Time: Sep 2, 2014 at 10:58:00 PM

Latest Report: Sep 2, 2014 at 9:52 PM


Visibility: 10 mi

Pressure: 29.90 "Hg

Humidity: 81%

Dew point: 74 °F

Location of Washington DCLocation

Historic Weather in Washington DC — Graph

°F

Washington DC temperature yesterday

Maximum temperature yesterday: 91 °F (at 2:52 PM)
Minimum temperature yesterday: 77 °F (at 12:52 AM)
Average temperature yesterday: 82 °F

Past Weeks' High & Low Weather Summary

 TemperatureHumidityPressure
High96 °F (Aug 31, 2:52 PM)85% (Aug 25, 6:52 AM)30.24 "Hg (Aug 25, 6:52 AM)
Low65 °F (Aug 29, 5:52 AM)34% (Aug 28, 6:52 PM)29.80 "Hg (Aug 19, 3:52 AM)
Average78 °F64%30.04 "Hg
* Reported Aug 18 8:52 PM — Sep 2 8:52 PM, Washington DC, Weather by CustomWeather, © 2014

Note: Actual official high and low records may vary slightly from our data, if they occured in-between our weather recording intervals... More about our weather records

Advertising

Washington DC weather history for previous 24 hours

 ConditionsComfort  
Time TempWeatherWind HumidityBarometerVisibility
8:52 PM
Sep 2
80 °FLight rain. Partly cloudy.9 mph81%29.91 "Hg10 mi
7:52 PM81 °FThunderstorms. Broken clouds.5 mph74%29.88 "Hg10 mi
6:52 PM90 °FBroken clouds.7 mph54%29.86 "Hg10 mi
5:52 PM91 °FBroken clouds.8 mph54%29.87 "Hg10 mi
4:52 PM94 °FBroken clouds.12 mph46%29.87 "Hg10 mi
3:52 PM95 °FPartly sunny.12 mph43%29.89 "Hg10 mi
2:52 PM93 °FScattered clouds.13 mph47%29.91 "Hg10 mi
1:52 PM93 °FScattered clouds.10 mph46%29.93 "Hg10 mi
12:52 PM91 °FPartly sunny.9 mph50%29.96 "Hg10 mi
11:52 AM92 °FScattered clouds.6 mph44%29.97 "Hg10 mi
10:52 AM89 °FPassing clouds.8 mph57%29.98 "Hg10 mi
9:52 AM85 °FPassing clouds.6 mph65%29.98 "Hg10 mi
8:52 AM82 °FPassing clouds.6 mph72%29.98 "Hg10 mi
7:52 AM80 °FScattered clouds.7 mph69%29.98 "Hg10 mi
6:52 AM78 °FPassing clouds.5 mph76%29.97 "Hg10 mi
5:52 AM77 °FPassing clouds.7 mph79%29.96 "Hg10 mi
4:52 AM78 °FPassing clouds.6 mph79%29.95 "Hg10 mi
3:52 AM79 °FPassing clouds.5 mph77%29.96 "Hg10 mi
2:52 AM79 °FPassing clouds.5 mph79%29.96 "Hg10 mi
1:52 AM81 °FPassing clouds.3 mph74%29.97 "Hg10 mi
12:52 AM81 °FPassing clouds.7 mph77%29.97 "Hg10 mi
11:52 PM
Sep 1
81 °FPartly cloudy.8 mph79%29.96 "Hg10 mi
10:52 PM81 °FPartly cloudy.5 mph79%29.97 "Hg10 mi
Weather by CustomWeather, © 2014

See weather overviewHow to use our weather pages